Simultaneous Nadir Overpasses (SNOs) Predictions

Prediction of SNOs between AQUA and METOP-C Satellite Orbit:

Table of predicted SNOs for the next 14.0 days since TLE Epoch: 12/13/2019
Index Date (AQUA) Time (AQUA) Lat,Lon (AQUA) SZA (AQUA ) Date (METOP-C) Time (METOP-C) Lat,Lon (METOP-C) SZA (METOP-C ) Distance(km) Time Diff (sec)
1 12/15/2019 04:10:47 -73.71, -68.28 83.09 12/15/2019 04:10:13 -73.72, -68.37 83.08 2.88 34
2 12/15/2019 05:00:17 73.82, 99.12 97.02 12/15/2019 05:00:52 73.79, 99.12 96.99 3.12 35
3 12/17/2019 23:45:03 -73.72, -1.86 82.96 12/17/2019 23:44:02 -73.73, -1.80 82.94 2.05 61
4 12/18/2019 00:34:32 73.77, 165.66 97.10 12/18/2019 00:34:41 73.79, 165.67 97.12 1.39 9
5 12/18/2019 01:24:04 -74.13, -27.50 82.52 12/18/2019 01:25:14 -74.16, -26.09 82.53 43.04 70
6 12/20/2019 19:19:09 -73.27, 65.54 83.36 12/20/2019 19:18:00 -73.24, 63.62 83.34 61.41 69
7 12/20/2019 20:08:46 73.74,-127.83 97.13 12/20/2019 20:08:30 73.73,-127.91 97.13 2.53 16
8 12/20/2019 20:58:13 -73.83, 39.61 82.77 12/20/2019 20:59:09 -73.82, 39.63 82.79 1.72 56
9 12/23/2019 15:43:01 73.71, -61.32 97.11 12/23/2019 15:42:19 73.73, -61.36 97.14 2.80 42
10 12/23/2019 16:32:28 -73.80, 106.12 82.80 12/23/2019 16:32:59 -73.78, 106.08 82.82 2.96 31
11 12/26/2019 11:17:16 73.68, 5.17 97.03 12/26/2019 11:16:09 73.68, 5.07 97.03 3.26 67
12 12/26/2019 12:06:43 -73.77, 172.61 82.88 12/26/2019 12:06:48 -73.78, 172.65 82.87 1.42 5




NCC Satellite Simultaneous Nadir Overpasses (SNOs) Prediction Service
